This is the latest recevied weather packets stored in our database for station/object HG6IQI-10. If no packets are shown the sender has not sent any weather packets the latest 10 day(s).
| Time | Temp. | Humidity | Pressure | Rain* | Wind** | Luminosity | Snow |
|---|---|---|---|---|---|---|---|
| 1777545190 | 11.67° C | 25% | 1028.2 hPa | - | - | - | - |
| 1777543391 | 11.67° C | 26% | 1028.4 hPa | - | - | - | - |
| 1777542491 | 11.67° C | 28% | 1028.4 hPa | - | - | - | - |
| 1777541591 | 10.56° C | 28% | 1028.7 hPa | - | - | - | - |
| 1777540690 | 10° C | 28% | 1028.8 hPa | - | - | - | - |
| 1777539790 | 10° C | 30% | 1028.7 hPa | - | - | - | - |
| 1777538890 | 8.89° C | 31% | 1028.9 hPa | - | - | - | - |
| 1777537990 | 10° C | 31% | 1028.9 hPa | - | - | - | - |
| 1777537090 | 9.44° C | 33% | 1028.9 hPa | - | - | - | - |
| 1777536190 | 8.89° C | 33% | 1029 hPa | - | - | - | - |
| 1777535290 | 8.89° C | 34% | 1029.1 hPa | - | - | - | - |
| 1777533490 | 7.78° C | 35% | 1029 hPa | - | - | - | - |
| 1777532590 | 7.78° C | 35% | 1029 hPa | - | - | - | - |
| 1777531690 | 7.78° C | 37% | 1028.9 hPa | - | - | - | - |
| 1777530790 | 6.67° C | 39% | 1029.1 hPa | - | - | - | - |
| 1777529890 | 6.11° C | 41% | 1029.2 hPa | - | - | - | - |
| 1777528989 | 5° C | 43% | 1029.1 hPa | - | - | - | - |
| 1777528089 | 4.44° C | 45% | 1029.1 hPa | - | - | - | - |
| 1777527189 | 3.89° C | 45% | 1029.1 hPa | - | - | - | - |
| 1777526289 | 3.89° C | 45% | 1029.1 hPa | - | - | - | - |
| 1777525389 | 3.89° C | 44% | 1029.1 hPa | - | - | - | - |
| 1777524489 | 2.78° C | 49% | 1029.1 hPa | - | - | - | - |
| 1777523589 | 2.22° C | 49% | 1028.8 hPa | - | - | - | - |
| 1777521790 | 1.67° C | 51% | 1028.7 hPa | - | - | - | - |
| 1777520890 | 0.56° C | 52% | 1028.6 hPa | - | - | - | - |
* Rain since midnight (hover to see other rain measurements)
** Current wind speed in m/s (hover to see current wind gust speed)